WX4SKY Weather Reports


Display with metric or nautical units.
time (UTC)temp
F
wind
direction
speed
MPH
gust
MPH
rain 1hr
in
rain 24hr
in
rain mn
in
humidity
%
barometer
mb
20260509034601 58 0 0.0 0.0 0.00 0.00 0.00 91 1015.1
20260509033059 58 0 0.0 0.0 0.00 0.00 0.00 91 1015.4
20260509031600 58 0 0.0 0.0 0.00 0.00 0.00 91 1015.1
20260509030055 59 0 0.0 0.0 0.00 0.00 0.00 91 1015.1
20260509024558 59 0 0.0 0.0 0.00 0.00 0.00 91 1015.2
20260509023057 59 0 0.0 0.0 0.00 0.00 0.00 90 1015.3
20260509021555 59 0 0.0 0.0 0.00 0.00 0.00 90 1015.3
20260509020053 59 0 0.0 0.0 0.00 0.00 0.00 90 1015.6
20260509014552 59 0 0.0 0.0 0.00 0.00 0.00 90 1015.4
20260509013059 60 0 0.0 0.0 0.00 0.00 0.00 90 1015.7
20260509011558 60 0 0.0 0.0 0.00 0.00 0.00 89 1015.4
20260509010059 60 0 0.0 0.0 0.00 0.00 0.00 89 1015.6
20260509004621 61 0 0.0 0.0 0.00 0.00 0.00 88 1015.4
20260509003054 61 0 0.0 0.0 0.00 0.00 0.00 87 1015.5
20260509001555 62 0 0.0 0.0 0.00 0.00 0.00 86 1015.6
20260509000057 62 0 0.0 0.0 0.00 0.00 0.00 85 1015.6
20260508234604 63 0 0.0 0.0 0.00 0.01 0.00 83 1015.7
20260508233054 64 0 0.0 0.0 0.00 0.01 0.00 82 1015.7
20260508231557 64 0 0.0 0.0 0.00 0.01 0.00 83 1015.7
20260508230057 65 0 0.0 0.0 0.00 0.01 0.00 80 1015.5
20260508224557 65 0 0.0 0.0 0.00 0.04 0.00 79 1015.2
20260508223054 65 0 0.0 0.0 0.00 0.04 0.00 80 1015.0
20260508221555 65 0 0.0 0.0 0.00 0.04 0.00 81 1015.1
20260508220056 66 0 0.0 0.0 0.00 0.04 0.00 81 1015.5
20260508214604 66 0 0.0 0.0 0.00 0.09 0.00 77 1015.4
20260508213055 66 0 0.0 0.0 0.00 0.09 0.00 76 1015.4
20260508211556 67 0 0.0 0.0 0.00 0.09 0.00 78 1015.3
20260508210057 67 0 0.0 0.0 0.00 0.09 0.00 75 1015.7
20260508204554 67 0 0.0 0.0 0.00 0.15 0.00 73 1015.8
20260508203055 69 0 0.0 0.0 0.00 0.15 0.00 71 1015.8
20260508201559 70 0 0.0 0.0 0.00 0.15 0.00 65 1015.7
20260508200056 69 0 0.0 0.0 0.00 0.15 0.00 68 1015.6
20260508194556 70 0 0.0 0.0 0.00 0.22 0.00 69 1015.8
20260508193113 70 0 0.0 2.0 0.00 0.22 0.00 65 1016.0
20260508191559 71 0 0.0 1.0 0.00 0.22 0.00 59 1016.4
20260508190106 71 0 0.0 1.0 0.00 0.22 0.00 63 1016.4
20260508184559 70 0 0.0 2.0 0.00 0.30 0.00 58 1016.5
20260508183113 71 59 1.0 2.0 0.00 0.30 0.00 56 1016.5
20260508181558 71 0 0.0 1.0 0.00 0.30 0.00 58 1016.9
20260508180107 71 69 1.0 3.0 0.00 0.30 0.00 54 1017.1
20260508174613 71 0 0.0 1.0 0.00 0.41 0.00 56 1017.3
20260508173053 70 0 0.0 2.0 0.00 0.41 0.00 59 1017.1
20260508171601 71 0 0.0 1.0 0.00 0.41 0.00 57 1017.5
20260508170106 69 36 1.0 3.0 0.00 0.41 0.00 55 1017.9
20260508164604 69 0 0.0 1.0 0.00 0.54 0.00 60 1017.7
20260508163057 69 36 1.0 2.0 0.00 0.54 0.00 57 1018.0
20260508161607 69 0 0.0 4.0 0.00 0.54 0.00 57 1018.2
20260508160058 69 0 0.0 2.0 0.00 0.54 0.00 56 1018.4
20260508154557 69 0 0.0 0.0 0.00 0.67 0.00 57 1018.6
20260508153059 68 0 0.0 0.0 0.00 0.67 0.00 59 1018.7
20260508151552 67 0 0.0 0.0 0.00 0.67 0.00 59 1019.2
20260508150053 66 0 0.0 0.0 0.00 0.67 0.00 62 1018.9
20260508144555 66 0 0.0 1.0 0.00 0.78 0.00 63 1018.8
20260508143100 64 0 0.0 2.0 0.00 0.78 0.00 68 1019.2
20260508141605 63 0 0.0 0.0 0.00 0.78 0.00 76 1019.3
20260508140059 62 0 0.0 0.0 0.00 0.78 0.00 82 1019.2
20260508134556 61 0 0.0 1.0 0.00 0.91 0.00 81 1019.2
20260508133053 59 129 0.0 1.0 0.00 0.91 0.00 80 1019.2
20260508131607 58 0 0.0 0.0 0.00 0.91 0.00 89 1019.1
20260508130101 57 0 0.0 0.0 0.00 0.91 0.00 91 1019.1
20260508124559 55 0 0.0 0.0 0.00 1.04 0.00 93 1018.9
20260508123115 54 0 0.0 0.0 0.00 1.04 0.00 94 1018.8
20260508121604 53 0 0.0 0.0 0.00 1.04 0.00 95 1018.8
20260508120108 53 0 0.0 0.0 0.00 1.04 0.00 95 1018.5
20260508114559 52 0 0.0 0.0 0.00 1.16 0.00 94 1018.4
20260508113108 51 0 0.0 0.0 0.00 1.16 0.00 94 1018.2
20260508111552 51 0 0.0 0.0 0.00 1.16 0.00 94 1017.8
20260508110106 51 0 0.0 0.0 0.00 1.16 0.00 94 1017.5
20260508104556 52 0 0.0 0.0 0.00 1.21 0.00 94 1017.1
20260508103101 52 0 0.0 0.0 0.00 1.21 0.00 94 1016.8
20260508101556 52 0 0.0 0.0 0.00 1.21 0.00 94 1016.5
20260508100056 52 0 0.0 0.0 0.00 1.21 0.00 93 1016.3
20260508094555 52 0 0.0 0.0 0.00 1.28 0.00 93 1016.4
20260508093105 52 0 0.0 0.0 0.00 1.28 0.00 93 1016.1
20260508091555 52 0 0.0 0.0 0.00 1.28 0.00 93 1016.0
20260508084557 53 0 0.0 0.0 0.00 1.30 0.00 93 1016.0
20260508083051 54 0 0.0 0.0 0.00 1.30 0.00 93 1016.0
20260508081601 54 0 0.0 0.0 0.00 1.30 0.00 93 1016.0
20260508080053 54 0 0.0 0.0 0.00 1.30 0.00 93 1015.8
20260508074554 54 0 0.0 0.0 0.00 1.32 0.00 93 1015.7
20260508073055 55 0 0.0 0.0 0.00 1.32 0.00 93 1015.9
20260508071554 55 0 0.0 0.0 0.00 1.32 0.00 93 1015.9
20260508070056 55 0 0.0 0.0 0.00 1.32 0.00 92 1016.1
20260508064558 56 0 0.0 0.0 0.00 1.41 0.00 92 1016.2
20260508063104 56 0 0.0 0.0 0.00 1.41 0.00 92 1016.5
20260508061555 56 0 0.0 0.0 0.00 1.41 0.00 92 1016.7
20260508060058 56 0 0.0 0.0 0.00 1.41 0.00 92 1016.7
20260508054555 57 0 0.0 0.0 0.00 1.51 0.00 92 1016.7
20260508053105 57 0 0.0 0.0 0.00 1.51 0.00 91 1016.5
20260508051554 57 0 0.0 0.0 0.00 1.51 0.00 91 1016.5
20260508044556 58 0 0.0 0.0 0.00 1.64 0.00 90 1016.9
20260508043104 58 0 0.0 0.0 0.00 1.64 0.00 90 1016.6
20260508041602 59 0 0.0 0.0 0.00 1.64 0.00 90 1016.4
20260508040056 59 0 0.0 0.0 0.00 1.64 0.00 89 1016.5